RYR22JQ EDFH-EGSS

Flight info

Callsign RYR22JQ
Flight time 1h 3m
Altitude 34000
Route RUDOT2S/21 RUDOT Y180 BITBU Y181 DEMUL M624 BUB DCT KOZUF DCT IMPOH DCT SASKI L608 SUMUM Y6 TOSVA
Aircraft B738/M-SDE2E3FGHIRWXY/LB1

Departure

Time 2026-05-07 20:53
Airport Frankfurt-Hahn Airport (EDFH)

Arrival

Time 2026-05-07 21:56
Airport London Stansted Airport (EGSS)
Time Latitude Longitude Altitude Speed Heading
2026-05-07 20:19 49.94643 7.26806 1616 ft 0 kts 213°
2026-05-07 20:45 49.94656 7.26818 1620 ft 2 kts 212°
2026-05-07 20:45 49.94673 7.26842 1620 ft 4 kts 255°
2026-05-07 20:45 49.94670 7.26878 1619 ft 4 kts 302°
2026-05-07 20:45 49.94664 7.26893 1622 ft 1 kts 303°
2026-05-07 20:46 49.94663 7.26893 1622 ft 0 kts 303°
2026-05-07 20:48 49.94664 7.26893 1621 ft 1 kts 303°
2026-05-07 20:49 49.94699 7.26809 1619 ft 18 kts 303°
2026-05-07 20:49 49.94771 7.26771 1622 ft 12 kts 30°
2026-05-07 20:49 49.94840 7.26838 1616 ft 12 kts 32°
2026-05-07 20:49 49.94914 7.26912 1620 ft 16 kts 33°
2026-05-07 20:50 49.95029 7.27027 1612 ft 22 kts 33°
2026-05-07 20:50 49.95162 7.27157 1607 ft 23 kts 33°
2026-05-07 20:50 49.95293 7.27287 1604 ft 22 kts 32°
2026-05-07 20:50 49.95421 7.27413 1609 ft 21 kts 31°
2026-05-07 20:51 49.95541 7.27530 1608 ft 8 kts 27°
2026-05-07 20:51 49.95593 7.27534 1609 ft 8 kts 340°
2026-05-07 20:51 49.95655 7.27475 1605 ft 16 kts 327°
2026-05-07 20:51 49.95748 7.27353 1596 ft 16 kts 298°
2026-05-07 20:52 49.95756 7.27258 1597 ft 6 kts 208°
2026-05-07 20:52 49.95650 7.27159 1597 ft 47 kts 212°
2026-05-07 20:52 49.95163 7.26678 1617 ft 116 kts 212°
2026-05-07 20:52 49.94325 7.25852 1702 ft 162 kts 213°
2026-05-07 20:53 49.93358 7.24890 2451 ft 161 kts 211°
2026-05-07 20:53 49.92390 7.23910 3143 ft 170 kts 211°
2026-05-07 20:53 49.91352 7.22853 3680 ft 191 kts 212°
2026-05-07 20:53 49.90150 7.21625 3954 ft 220 kts 212°
2026-05-07 20:54 49.88823 7.20264 4221 ft 240 kts 213°
2026-05-07 20:54 49.87391 7.18791 4790 ft 246 kts 213°
2026-05-07 20:54 49.86199 7.16939 5030 ft 251 kts 245°
2026-05-07 20:54 49.86025 7.14291 5840 ft 249 kts 283°
2026-05-07 20:55 49.86531 7.11762 6876 ft 245 kts 289°
2026-05-07 20:55 49.87123 7.09255 7662 ft 250 kts 290°
2026-05-07 20:55 49.87735 7.06691 8382 ft 260 kts 289°
2026-05-07 20:55 49.88525 7.04064 8920 ft 275 kts 298°
2026-05-07 20:56 49.89509 7.01470 9736 ft 281 kts 300°
2026-05-07 20:56 49.90536 6.98865 10483 ft 288 kts 300°
2026-05-07 20:56 49.91623 6.96102 10698 ft 313 kts 300°
2026-05-07 20:56 49.92785 6.93120 11119 ft 328 kts 300°
2026-05-07 20:57 49.93957 6.90086 11838 ft 334 kts 300°
2026-05-07 20:57 49.95155 6.86962 12659 ft 337 kts 299°
2026-05-07 20:57 49.96356 6.83809 13494 ft 341 kts 299°
2026-05-07 20:57 49.97568 6.80608 14273 ft 346 kts 299°
2026-05-07 20:58 49.98789 6.77373 15067 ft 348 kts 299°
2026-05-07 20:58 50.00018 6.74107 15913 ft 351 kts 299°
2026-05-07 20:58 50.01256 6.70809 16708 ft 355 kts 299°
2026-05-07 20:58 50.02504 6.67479 17498 ft 358 kts 299°
2026-05-07 20:59 50.03747 6.64156 18268 ft 362 kts 299°
2026-05-07 20:59 50.05019 6.60753 18955 ft 366 kts 299°
2026-05-07 20:59 50.06304 6.57307 19645 ft 368 kts 299°
2026-05-07 20:59 50.07595 6.53843 20351 ft 372 kts 299°
2026-05-07 21:00 50.08898 6.50340 21028 ft 375 kts 299°
2026-05-07 21:00 50.10211 6.46807 21693 ft 378 kts 299°
2026-05-07 21:00 50.11534 6.43241 22344 ft 381 kts 299°
2026-05-07 21:00 50.12850 6.39690 22975 ft 385 kts 298°
2026-05-07 21:01 50.14195 6.36055 23600 ft 388 kts 298°
2026-05-07 21:01 50.15551 6.32383 24123 ft 391 kts 298°
2026-05-07 21:01 50.16912 6.28696 24661 ft 394 kts 298°
2026-05-07 21:01 50.18281 6.24980 25179 ft 396 kts 298°
2026-05-07 21:02 50.19659 6.21233 25685 ft 399 kts 298°
2026-05-07 21:02 50.21044 6.17462 26184 ft 402 kts 298°
2026-05-07 21:02 50.22439 6.13660 26678 ft 404 kts 298°
2026-05-07 21:02 50.23840 6.09834 27146 ft 407 kts 298°
2026-05-07 21:03 50.25248 6.05985 27623 ft 410 kts 298°
2026-05-07 21:03 50.26667 6.02099 28097 ft 412 kts 298°
2026-05-07 21:03 50.28092 5.98191 28549 ft 415 kts 298°
2026-05-07 21:03 50.29506 5.94306 29075 ft 415 kts 298°
2026-05-07 21:04 50.30930 5.90390 29754 ft 412 kts 298°
2026-05-07 21:04 50.32342 5.86502 30393 ft 409 kts 298°
2026-05-07 21:04 50.33746 5.82629 30889 ft 407 kts 298°
2026-05-07 21:04 50.35144 5.78767 31344 ft 407 kts 298°
2026-05-07 21:05 50.36523 5.74950 31816 ft 406 kts 298°
2026-05-07 21:05 50.37909 5.71108 32333 ft 404 kts 297°
2026-05-07 21:05 50.39290 5.67277 32826 ft 403 kts 297°
2026-05-07 21:05 50.40663 5.63460 33283 ft 402 kts 297°
2026-05-07 21:06 50.42038 5.59631 33732 ft 401 kts 297°
2026-05-07 21:06 50.43406 5.55816 34088 ft 403 kts 297°
2026-05-07 21:06 50.44789 5.51951 34067 ft 408 kts 297°
2026-05-07 21:07 50.47561 5.44193 34067 ft 403 kts 297°
2026-05-07 21:07 50.50271 5.36588 34089 ft 400 kts 297°
2026-05-07 21:08 50.52996 5.28914 34091 ft 402 kts 297°
2026-05-07 21:08 50.55711 5.21246 34086 ft 404 kts 297°
2026-05-07 21:09 50.58445 5.13501 34081 ft 404 kts 297°
2026-05-07 21:09 50.61170 5.05757 34081 ft 404 kts 297°
2026-05-07 21:10 50.63886 4.98020 34079 ft 402 kts 297°
2026-05-07 21:10 50.66783 4.90547 34075 ft 403 kts 307°
2026-05-07 21:11 50.70739 4.84260 34083 ft 404 kts 314°
2026-05-07 21:11 50.76777 4.74950 34082 ft 403 kts 313°
2026-05-07 21:12 50.80734 4.68730 34108 ft 404 kts 312°
2026-05-07 21:12 50.84721 4.62450 34102 ft 404 kts 312°
2026-05-07 21:13 50.88714 4.56153 34104 ft 404 kts 312°
2026-05-07 21:13 50.92513 4.49669 34106 ft 402 kts 307°
2026-05-07 21:14 50.96046 4.42770 34103 ft 402 kts 306°
2026-05-07 21:14 50.99566 4.35836 34102 ft 403 kts 306°
2026-05-07 21:15 51.03108 4.28931 34097 ft 403 kts 307°
2026-05-07 21:15 51.06639 4.22075 34096 ft 403 kts 307°
2026-05-07 21:16 51.10191 4.15168 34093 ft 403 kts 307°
2026-05-07 21:16 51.13741 4.08248 34090 ft 403 kts 307°
2026-05-07 21:17 51.17262 4.01364 34088 ft 402 kts 307°
2026-05-07 21:17 51.20801 3.94427 34082 ft 402 kts 306°
2026-05-07 21:18 51.24335 3.87478 34079 ft 402 kts 306°
2026-05-07 21:18 51.27835 3.80579 34101 ft 402 kts 306°
2026-05-07 21:19 51.31357 3.73621 34083 ft 402 kts 306°
2026-05-07 21:19 51.34688 3.66510 34071 ft 399 kts 297°
2026-05-07 21:20 51.36713 3.58305 34085 ft 395 kts 284°
2026-05-07 21:20 51.38158 3.49802 34079 ft 395 kts 283°
2026-05-07 21:21 51.39599 3.41367 34083 ft 395 kts 284°
2026-05-07 21:21 51.41066 3.32897 34076 ft 389 kts 284°
2026-05-07 21:22 51.42491 3.24689 34063 ft 371 kts 284°
2026-05-07 21:22 51.43170 3.20768 34066 ft 358 kts 284°
2026-05-07 21:22 51.43823 3.16988 34064 ft 345 kts 283°
2026-05-07 21:23 51.44444 3.13378 34059 ft 334 kts 283°
2026-05-07 21:23 51.45055 3.09810 33783 ft 330 kts 283°
2026-05-07 21:23 51.45648 3.06252 33353 ft 331 kts 283°
2026-05-07 21:23 51.46248 3.02611 32312 ft 347 kts 283°
2026-05-07 21:24 51.46883 2.98727 31226 ft 367 kts 283°
2026-05-07 21:24 51.47531 2.94778 30852 ft 365 kts 283°
2026-05-07 21:24 51.48177 2.90842 30456 ft 363 kts 283°
2026-05-07 21:24 51.48819 2.86931 30098 ft 361 kts 283°
2026-05-07 21:25 51.49454 2.83048 29683 ft 358 kts 283°
2026-05-07 21:25 51.50082 2.79202 29321 ft 354 kts 283°
2026-05-07 21:25 51.50702 2.75399 28961 ft 350 kts 283°
2026-05-07 21:25 51.51305 2.71683 28612 ft 346 kts 283°
2026-05-07 21:26 51.51911 2.67948 28255 ft 343 kts 283°
2026-05-07 21:26 51.52506 2.64267 27902 ft 340 kts 283°
2026-05-07 21:26 51.53097 2.60609 27555 ft 336 kts 283°
2026-05-07 21:26 51.53682 2.56976 27208 ft 334 kts 283°
2026-05-07 21:27 51.54261 2.53372 26863 ft 331 kts 283°
2026-05-07 21:27 51.54837 2.49849 26539 ft 329 kts 285°
2026-05-07 21:27 51.55568 2.46374 26195 ft 327 kts 288°
2026-05-07 21:27 51.56368 2.42953 25862 ft 326 kts 289°
2026-05-07 21:28 51.57161 2.39548 25537 ft 324 kts 288°
2026-05-07 21:28 51.57940 2.36156 25203 ft 322 kts 288°
2026-05-07 21:28 51.58710 2.32788 24877 ft 320 kts 288°
2026-05-07 21:28 51.59477 2.29426 24546 ft 319 kts 288°
2026-05-07 21:29 51.60228 2.26127 24229 ft 317 kts 288°
2026-05-07 21:29 51.60986 2.22798 23909 ft 316 kts 288°
2026-05-07 21:29 51.61740 2.19472 23573 ft 315 kts 288°
2026-05-07 21:29 51.62488 2.16169 23201 ft 314 kts 288°
2026-05-07 21:30 51.63344 2.12937 22837 ft 314 kts 300°
2026-05-07 21:30 51.64739 2.10240 22553 ft 314 kts 315°
2026-05-07 21:30 51.66538 2.08238 22220 ft 316 kts 329°
2026-05-07 21:30 51.68483 2.06600 21888 ft 316 kts 330°
2026-05-07 21:31 51.70429 2.04993 21556 ft 321 kts 330°
2026-05-07 21:31 51.72443 2.03319 21201 ft 329 kts 330°
2026-05-07 21:31 51.74491 2.01600 20830 ft 333 kts 330°
2026-05-07 21:31 51.76552 1.99859 20454 ft 334 kts 330°
2026-05-07 21:32 51.78626 1.98096 20084 ft 335 kts 330°
2026-05-07 21:32 51.80659 1.96363 19723 ft 334 kts 330°
2026-05-07 21:32 51.82711 1.94611 19355 ft 333 kts 330°
2026-05-07 21:32 51.84758 1.92859 18993 ft 332 kts 330°
2026-05-07 21:33 51.86803 1.91107 18631 ft 331 kts 330°
2026-05-07 21:33 51.88821 1.89314 18242 ft 329 kts 323°
2026-05-07 21:33 51.90387 1.86772 17901 ft 320 kts 302°
2026-05-07 21:33 51.91508 1.83704 17623 ft 314 kts 296°
2026-05-07 21:34 51.92527 1.80591 17335 ft 310 kts 295°
2026-05-07 21:34 51.93515 1.77501 17059 ft 307 kts 295°
2026-05-07 21:34 51.94164 1.75473 16882 ft 305 kts 295°
2026-05-07 21:34 51.95146 1.72422 16618 ft 304 kts 295°
2026-05-07 21:35 51.96132 1.69377 16351 ft 305 kts 296°
2026-05-07 21:35 51.97124 1.66327 16090 ft 306 kts 296°
2026-05-07 21:35 51.98124 1.63264 15820 ft 307 kts 296°
2026-05-07 21:35 51.99122 1.60211 15548 ft 305 kts 296°
2026-05-07 21:36 52.00116 1.57174 15289 ft 303 kts 296°
2026-05-07 21:36 52.01103 1.54153 15025 ft 302 kts 296°
2026-05-07 21:36 52.02083 1.51155 14762 ft 300 kts 296°
2026-05-07 21:36 52.03060 1.48160 14499 ft 299 kts 296°
2026-05-07 21:37 52.04031 1.45183 14246 ft 298 kts 295°
2026-05-07 21:37 52.04985 1.42251 13998 ft 297 kts 295°
2026-05-07 21:37 52.05950 1.39285 13704 ft 296 kts 295°
2026-05-07 21:37 52.06914 1.36316 13417 ft 296 kts 295°
2026-05-07 21:38 52.07872 1.33362 13153 ft 295 kts 296°
2026-05-07 21:38 52.08827 1.30419 12892 ft 293 kts 296°
2026-05-07 21:38 52.09776 1.27488 12629 ft 292 kts 296°
2026-05-07 21:38 52.10722 1.24562 12375 ft 291 kts 296°
2026-05-07 21:39 52.11662 1.21650 12172 ft 290 kts 296°
2026-05-07 21:39 52.12595 1.18759 12131 ft 294 kts 296°
2026-05-07 21:39 52.13541 1.15821 12105 ft 292 kts 296°
2026-05-07 21:39 52.14252 1.12716 11609 ft 297 kts 271°
2026-05-07 21:40 52.13890 1.09491 11378 ft 288 kts 246°
2026-05-07 21:40 52.13079 1.06537 11172 ft 282 kts 244°
2026-05-07 21:40 52.12295 1.03678 10956 ft 278 kts 245°
2026-05-07 21:40 52.11532 1.00796 10774 ft 276 kts 246°
2026-05-07 21:41 52.10797 0.97923 10589 ft 275 kts 246°
2026-05-07 21:41 52.10080 0.95050 10408 ft 274 kts 247°
2026-05-07 21:41 52.09372 0.92170 10206 ft 273 kts 247°
2026-05-07 21:41 52.08673 0.89289 10022 ft 273 kts 247°
2026-05-07 21:42 52.07978 0.86411 9815 ft 272 kts 248°
2026-05-07 21:42 52.07294 0.83573 9620 ft 271 kts 248°
2026-05-07 21:42 52.06609 0.80722 9425 ft 270 kts 248°
2026-05-07 21:42 52.05929 0.77890 9235 ft 269 kts 248°
2026-05-07 21:43 52.05250 0.75064 9042 ft 267 kts 248°
2026-05-07 21:43 52.04576 0.72260 8859 ft 266 kts 248°
2026-05-07 21:43 52.03906 0.69471 8677 ft 265 kts 248°
2026-05-07 21:43 52.03241 0.66710 8498 ft 260 kts 248°
2026-05-07 21:44 52.02586 0.63999 8320 ft 254 kts 248°
2026-05-07 21:44 52.01945 0.61347 8154 ft 250 kts 248°
2026-05-07 21:44 52.01470 0.58669 7975 ft 245 kts 262°
2026-05-07 21:44 52.01357 0.55976 7863 ft 239 kts 266°
2026-05-07 21:45 52.01260 0.53282 7725 ft 238 kts 266°
2026-05-07 21:45 52.01155 0.50598 7607 ft 239 kts 265°
2026-05-07 21:45 52.01043 0.47893 7492 ft 240 kts 266°
2026-05-07 21:45 52.00928 0.45224 7340 ft 240 kts 265°
2026-05-07 21:46 52.00808 0.42518 7207 ft 239 kts 265°
2026-05-07 21:46 52.00686 0.39822 7078 ft 239 kts 265°
2026-05-07 21:46 52.00562 0.37128 6935 ft 239 kts 265°
2026-05-07 21:46 52.00436 0.34447 6804 ft 239 kts 265°
2026-05-07 21:47 52.00309 0.31756 6670 ft 238 kts 265°
2026-05-07 21:47 52.00179 0.29108 6543 ft 238 kts 263°
2026-05-07 21:47 51.99599 0.26640 6369 ft 237 kts 230°
2026-05-07 21:47 51.98426 0.24782 6274 ft 235 kts 223°
2026-05-07 21:48 51.97228 0.22970 6129 ft 235 kts 223°
2026-05-07 21:48 51.96012 0.21135 5808 ft 242 kts 223°
2026-05-07 21:48 51.94772 0.19265 5485 ft 244 kts 223°
2026-05-07 21:48 51.93521 0.17378 5090 ft 249 kts 223°
2026-05-07 21:49 51.92246 0.15452 4721 ft 252 kts 223°
2026-05-07 21:49 51.90958 0.13506 4350 ft 254 kts 222°
2026-05-07 21:49 51.89661 0.11545 3992 ft 256 kts 223°
2026-05-07 21:49 51.88354 0.09573 3634 ft 257 kts 221°
2026-05-07 21:50 51.87044 0.07599 3272 ft 258 kts 221°
2026-05-07 21:50 51.85750 0.05646 3029 ft 254 kts 222°
2026-05-07 21:50 51.84493 0.03730 2989 ft 242 kts 222°
2026-05-07 21:50 51.83296 0.01901 2968 ft 230 kts 222°
2026-05-07 21:51 51.82154 0.00159 2977 ft 224 kts 222°
2026-05-07 21:51 51.81032 -0.01544 2954 ft 216 kts 220°
2026-05-07 21:51 51.79760 -0.02578 2951 ft 205 kts 182°
2026-05-07 21:51 51.78445 -0.01944 2964 ft 202 kts 139°
2026-05-07 21:52 51.77644 -0.00038 2778 ft 213 kts 112°
2026-05-07 21:52 51.77375 0.02266 2701 ft 208 kts 90°
2026-05-07 21:52 51.77624 0.04523 2607 ft 201 kts 73°
2026-05-07 21:52 51.78192 0.06518 2518 ft 190 kts 63°
2026-05-07 21:53 51.78816 0.08309 2487 ft 176 kts 58°
2026-05-07 21:53 51.79563 0.09790 2493 ft 167 kts 51°
2026-05-07 21:53 51.80362 0.11188 2378 ft 173 kts 47°
2026-05-07 21:53 51.81231 0.12536 2148 ft 173 kts 46°
2026-05-07 21:54 51.82083 0.13818 1965 ft 159 kts 46°
2026-05-07 21:54 51.82874 0.15009 1715 ft 151 kts 47°
2026-05-07 21:54 51.83636 0.16159 1519 ft 150 kts 47°
2026-05-07 21:54 51.84392 0.17298 1306 ft 150 kts 47°
2026-05-07 21:55 51.85154 0.18446 1085 ft 149 kts 46°
2026-05-07 21:55 51.85897 0.19562 866 ft 143 kts 45°
2026-05-07 21:55 51.86621 0.20623 685 ft 139 kts 45°
2026-05-07 21:55 51.87318 0.21687 481 ft 136 kts 46°
2026-05-07 21:56 51.87987 0.22708 334 ft 124 kts 44°
2026-05-07 21:56 51.88457 0.23415 341 ft 63 kts 43°
2026-05-07 21:56 51.88741 0.23846 341 ft 53 kts 46°
2026-05-07 21:56 51.88894 0.24277 348 ft 36 kts 77°
2026-05-07 21:57 51.88912 0.24497 357 ft 17 kts 114°
2026-05-07 21:57 51.88960 0.24654 353 ft 17 kts 43°
2026-05-07 21:57 51.89042 0.24777 355 ft 16 kts 43°
2026-05-07 21:57 51.89136 0.24920 351 ft 23 kts 43°
2026-05-07 21:58 51.89257 0.25152 356 ft 30 kts 54°
2026-05-07 21:58 51.89399 0.25384 351 ft 28 kts 42°
2026-05-07 21:58 51.89539 0.25593 357 ft 26 kts 43°
2026-05-07 21:58 51.89587 0.25810 356 ft 23 kts 137°
2026-05-07 21:59 51.89468 0.25967 351 ft 21 kts 133°
2026-05-07 21:59 51.89428 0.25998 356 ft 6 kts 205°
2026-05-07 21:59 51.89399 0.25955 356 ft 0 kts 223°
2026-05-07 21:59 51.89394 0.25948 358 ft 1 kts 223°
2026-05-07 22:00 51.89393 0.25946 351 ft 0 kts 223°